Le nostre stazioni meteo in Italia

Pubblicità
Il mio iltempo24.it
Pratica Di Mare, Italia (16245): Temperatura & dewpoint: 13.08.2018 10:00:00 - 19.08.2018 10:00:00 (CEST)Pratica Di Mare, Italia (16245): velocità del vento: 13.08.2018 10:00:00 - 19.08.2018 10:00:00 (CEST)Pratica Di Mare, Italia (16245): direzione del vento: 13.08.2018 10:00:00 - 19.08.2018 10:00:00 (CEST)Pratica Di Mare, Italia (16245): reduced air pressure: 13.08.2018 10:00:00 - 19.08.2018 10:00:00 (CEST)Pratica Di Mare, Italia (16245): visibility: 13.08.2018 10:00:00 - 19.08.2018 10:00:00 (CEST)
Data & Tempo tt [°C] td [°C] ff [km/h] ff [kn] dd ppp [hPa] vv [km]
19.08.2018 10:00:00 - - - - - - -
19.08.2018 09:00:00 25,0 20,0 11 6 N - 10
19.08.2018 08:00:00 21,0 18,2 15 8 NNE 1015,5 10
19.08.2018 07:00:00 21,0 20,0 11 6 NNE - 10
19.08.2018 06:00:00 22,0 20,0 9 5 NNE - 10
19.08.2018 05:00:00 21,8 20,1 11 6 NNE 1016,2 10
19.08.2018 04:00:00 22,0 19,0 9 5 NNE - 10
19.08.2018 03:00:00 23,0 20,0 11 6 NE - 10
19.08.2018 02:00:00 23,2 20,5 9 5 NE 1016,2 10
19.08.2018 01:00:00 23,0 19,0 15 8 NNE - 10
19.08.2018 00:00:00 23,0 21,0 5 3 N - 10
18.08.2018 23:00:00 22,8 19,0 9 5 NE 1016,2 10
18.08.2018 22:00:00 23,0 21,0 8 4 N - 10
18.08.2018 21:00:00 25,0 22,0 9 5 N - 10
18.08.2018 20:00:00 27,8 20,9 5 3 NO 1015,7 15
18.08.2018 19:00:00 28,0 20,0 4 2 NNO - 10
18.08.2018 18:00:00 28,0 22,0 11 6 N - 10
18.08.2018 17:00:00 28,0 20,3 15 8 NE 1016,0 15
18.08.2018 16:00:00 29,0 25,0 21 11 ONO - 10
18.08.2018 15:00:00 29,0 25,0 22 12 O - 10
18.08.2018 14:00:00 29,2 24,3 21 11 O 1015,8 20
18.08.2018 13:00:00 29,0 23,0 22 12 O - 10
18.08.2018 12:00:00 29,0 21,0 18 10 O - 10
18.08.2018 11:00:00 29,0 21,0 13 7 OSO 1016,1 20
18.08.2018 10:00:00 27,0 20,0 5 3 N - 10
18.08.2018 09:00:00 25,0 21,0 9 5 NNE - 10
18.08.2018 08:00:00 23,2 21,1 11 6 NNE 1015,1 20
18.08.2018 07:00:00 22,0 21,0 11 6 NNE - 10
18.08.2018 06:00:00 22,0 22,0 9 5 NNE - 10
18.08.2018 05:00:00 22,8 22,0 9 5 NNE 1014,8 12
18.08.2018 04:00:00 23,0 22,0 9 5 NNE - 10
18.08.2018 03:00:00 24,0 23,0 8 4 NE - 10
18.08.2018 02:00:00 24,0 23,2 8 4 NNE 1015,2 12
18.08.2018 01:00:00 24,0 23,0 4 2 - - 10
18.08.2018 00:00:00 24,0 23,0 5 3 NE - 10
17.08.2018 23:00:00 25,0 23,6 4 2 NNE 1015,3 12
17.08.2018 22:00:00 26,0 24,0 4 2 N - 10
17.08.2018 21:00:00 26,0 24,0 5 3 NNO - 10
17.08.2018 20:00:00 27,0 24,1 13 7 O 1013,9 15
17.08.2018 19:00:00 29,0 25,0 15 8 O - 10
17.08.2018 18:00:00 29,0 25,0 15 8 OSO - 10
17.08.2018 17:00:00 29,4 19,1 16 9 O 1014,3 20
17.08.2018 16:00:00 30,0 23,0 22 12 OSO - 10
17.08.2018 15:00:00 30,0 23,0 21 11 OSO - 10
17.08.2018 14:00:00 29,4 20,6 18 10 SO 1014,3 20
17.08.2018 13:00:00 29,0 20,0 15 8 OSO - 10
17.08.2018 12:00:00 28,0 21,0 13 7 SSO - 10
17.08.2018 11:00:00 28,0 21,3 13 7 SSO 1014,5 15
17.08.2018 10:00:00 27,0 21,0 5 3 SSO - 10
17.08.2018 09:00:00 27,0 22,0 4 2 SE - 10
17.08.2018 08:00:00 22,6 21,2 5 3 N 1014,1 15
17.08.2018 07:00:00 22,0 21,0 5 3 ENE - 10
17.08.2018 06:00:00 22,0 20,0 8 4 NE - 10
17.08.2018 05:00:00 22,8 21,8 8 4 NNE 1013,5 15
17.08.2018 04:00:00 22,0 21,0 2 1 E - 10
17.08.2018 03:00:00 22,0 21,0 4 2 E - 10
17.08.2018 02:00:00 22,2 20,7 11 6 NNE 1013,5 15
17.08.2018 01:00:00 23,0 21,0 8 4 NNE - 10
17.08.2018 00:00:00 23,0 21,0 13 7 NE - 10
16.08.2018 23:00:00 23,4 21,5 13 7 NNE 1013,3 15
16.08.2018 22:00:00 23,0 21,0 13 7 NE - 10
16.08.2018 21:00:00 24,0 22,0 13 7 N - 10
16.08.2018 20:00:00 27,4 19,7 15 8 N 1012,9 20
16.08.2018 19:00:00 28,0 20,0 9 5 N - 10
16.08.2018 18:00:00 27,0 20,0 28 15 NE - 10
16.08.2018 17:00:00 29,8 22,8 21 11 O 1012,8 25
16.08.2018 16:00:00 31,0 22,0 21 11 O - 10
16.08.2018 15:00:00 30,0 21,0 21 11 O - 10
16.08.2018 14:00:00 30,0 22,7 16 9 O 1013,1 25
16.08.2018 13:00:00 30,0 21,0 15 8 OSO - 10
16.08.2018 12:00:00 30,0 21,0 11 6 OSO - 10
16.08.2018 11:00:00 28,8 21,8 4 2 N 1013,2 25
16.08.2018 10:00:00 27,0 20,0 9 5 ENE - 10
16.08.2018 09:00:00 23,0 19,0 18 10 NNE - 10
16.08.2018 08:00:00 21,0 18,8 16 9 NNE 1012,9 15
16.08.2018 07:00:00 20,0 19,0 22 12 NNE - 10
16.08.2018 06:00:00 20,0 20,0 5 3 NNE - 10
16.08.2018 05:00:00 20,4 19,4 4 2 NNO 1013,3 15
16.08.2018 04:00:00 21,0 20,0 4 2 N - 10
16.08.2018 03:00:00 21,0 20,0 11 6 NNE - 10
16.08.2018 02:00:00 20,8 20,0 11 6 NNE 1013,7 15
16.08.2018 01:00:00 21,0 20,0 5 3 N - 10
16.08.2018 00:00:00 21,0 20,0 8 4 NNE - 10
15.08.2018 23:00:00 21,2 20,4 9 5 NE 1013,6 15
15.08.2018 22:00:00 21,0 20,0 9 5 NNE - 10
15.08.2018 21:00:00 22,0 21,0 8 4 NE - 10
15.08.2018 20:00:00 22,0 21,3 8 4 NE 1012,7 15
15.08.2018 19:00:00 22,0 21,0 8 4 NNO - 10
15.08.2018 18:00:00 22,0 21,0 9 5 NNO - 10
15.08.2018 17:00:00 25,0 20,0 21 11 NE 1012,6 12
15.08.2018 16:00:00 27,0 23,0 15 8 SSO - 10
15.08.2018 15:00:00 27,0 23,0 18 10 S - 10
15.08.2018 14:00:00 27,4 21,9 16 9 SSO 1012,5 15
15.08.2018 13:00:00 26,0 21,0 8 4 ENE - 10
15.08.2018 12:00:00 23,0 21,0 4 2 NNE - 10
15.08.2018 11:00:00 22,6 20,9 9 5 NNE 1012,1 15
15.08.2018 10:00:00 22,0 21,0 13 7 NNE - 10
15.08.2018 09:00:00 22,0 20,0 13 7 NNE - 10
15.08.2018 08:00:00 21,0 20,0 13 7 NNE 1011,4 10
15.08.2018 07:00:00 21,0 20,0 16 9 NNE - 10
15.08.2018 06:00:00 21,0 20,0 8 4 NO - 10
15.08.2018 05:00:00 21,0 20,0 4 2 NO 1011,8 10
15.08.2018 04:00:00 21,0 20,0 8 4 NNO - 10
15.08.2018 03:00:00 22,0 21,0 13 7 NE - 10
15.08.2018 02:00:00 22,0 21,3 16 9 NE 1012,1 10
15.08.2018 01:00:00 23,0 22,0 9 5 ENE - 10
15.08.2018 00:00:00 23,0 22,0 9 5 E - 10
14.08.2018 23:00:00 23,0 22,2 15 8 ESE 1012,1 10
14.08.2018 22:00:00 23,0 22,0 13 7 SE - 10
14.08.2018 21:00:00 25,0 24,0 11 6 OSO - 10
14.08.2018 20:00:00 25,4 23,1 11 6 SE 1011,8 12
14.08.2018 19:00:00 26,0 23,0 11 6 SSE - 10
14.08.2018 18:00:00 25,0 20,0 9 5 SE - 10
14.08.2018 17:00:00 23,2 21,5 13 7 ENE 1013,2 10
14.08.2018 16:00:00 22,0 21,0 8 4 ENE - 10
14.08.2018 15:00:00 22,0 21,0 4 2 SE - 7
14.08.2018 14:00:00 25,0 20,3 24 13 NNE 1013,3 10
14.08.2018 13:00:00 30,0 27,0 22 12 S - 10
14.08.2018 12:00:00 29,0 25,0 13 7 SSO - 10
14.08.2018 11:00:00 28,6 25,2 18 10 SSE 1013,0 15
14.08.2018 10:00:00 28,0 25,0 11 6 S - 10
14.08.2018 09:00:00 27,0 24,0 8 4 E - 10
14.08.2018 08:00:00 25,2 23,8 9 5 E 1012,2 15
14.08.2018 07:00:00 24,0 23,0 8 4 E - 10
14.08.2018 06:00:00 24,0 23,0 5 3 NNO - 10
14.08.2018 05:00:00 24,2 23,3 4 2 N 1012,3 12
14.08.2018 04:00:00 25,0 24,0 8 4 ENE - 10
14.08.2018 03:00:00 25,0 24,0 5 3 NE - 10
14.08.2018 02:00:00 25,0 24,0 5 3 NNE 1013,3 12
14.08.2018 01:00:00 25,0 24,0 5 3 NE - 10
14.08.2018 00:00:00 26,0 24,0 5 3 NNE - 10
13.08.2018 23:00:00 26,6 24,8 4 2 N 1012,9 12
13.08.2018 22:00:00 27,0 25,0 5 3 SO - 10
13.08.2018 21:00:00 28,0 26,0 8 4 OSO - 10
13.08.2018 20:00:00 27,6 25,4 11 6 SO 1012,8 10
13.08.2018 19:00:00 29,0 27,0 15 8 OSO - 10
13.08.2018 18:00:00 30,0 27,0 16 9 OSO - 10
13.08.2018 17:00:00 30,0 26,2 18 10 SO 1013,9 15
13.08.2018 16:00:00 30,0 25,0 18 10 OSO - 10
13.08.2018 15:00:00 30,0 25,0 16 9 SO - 10
13.08.2018 14:00:00 29,6 25,4 18 10 SO 1015,2 15
13.08.2018 13:00:00 29,0 25,0 15 8 SO - 10
13.08.2018 12:00:00 29,0 24,0 11 6 SO - 10
13.08.2018 11:00:00 29,8 23,5 11 6 OSO 1015,6 15
13.08.2018 10:00:00 28,0 23,0 11 6 S - 10

tt = Temperatura
td = dewpoint
ff = velocità del vento
dd = direzione del vento
ppp = reduced air pressure
vv = visibility

Stazioni seguenti

WeatherPro
AMSI
MeteoEarth